Regional Weather Roundup
Issued by NWS

Home | Current Version | Previous Version | Text Only | Print | Product List | Glossary Off
Versions: 1 2 3 4 5 6 7 8 9 10 11 12 13 14 15 16 17 18 19 20 21 22 23 24 25 26 27

000
ASUS45 KBOU 210010
RWRCO

WEATHER ROUNDUP FOR COLORADO
NATIONAL WEATHER SERVICE DENVER/BOULDER CO
500 PM MST SAT JAN 20 2018

NOTE: "FAIR" INDICATES FEW OR NO CLOUDS BELOW 12000 FEET WITH NO
SIGNIFICANT WEATHER AND/OR OBSTRUCTIONS TO VISIBILITY.

COZ001>005-013-030-031-210100-
...NORTHWEST COLORADO...

CITY           SKY/WX    TMP DP  RH WIND       PRES   REMARKS
CRAIG          LGT SNOW  34  31  88 E3        29.70F FOG
HAYDEN         MOCLDY   N/A N/A N/A S6        29.71S
MEEKER         FAIR      41  32  70 SW14G21   29.69R
RABBIT EARS PA NOT AVBL
STEAMBOAT SPGS NOT AVBL
WALDEN         NOT AVBL
$$

COZ006>008-011-210100-
...WEST CENTRAL VALLEYS...

CITY           SKY/WX    TMP DP  RH WIND       PRES   REMARKS
GRAND JUNCTION LGT RAIN  43  35  73 NW3       29.69S
MONTROSE       CLOUDY    47  27  45 SW21G30   29.72R
EAGLE          CLOUDY    42  31  64 W9        29.71F
RIFLE          LGT RAIN  39  37  92 CALM      29.70S
DELTA          FAIR      50  31  49 SW17G24   29.71R
NUCLA          LGT RAIN  39  34  81 S9        29.77F
$$

COZ017>023-064>068-210100-
...SOUTHWEST COLORADO...

CITY           SKY/WX    TMP DP  RH WIND       PRES   REMARKS
DURANGO        LGT RAIN  40  34  79 W17G31    29.80R
CORTEZ         CLOUDY    43  34  70 SW15      29.77S
PAGOSA SPRINGS CLOUDY    44  20  39 S8        29.81F
TELLURIDE      LGT SNOW  31  28  86 E7        29.80R VSB 3/4 WCI  25
WOLF CREEK PAS NOT AVBL
$$

COZ009-010-012-014-032>034-037-058>063-210100-
...CENTRAL COLORADO...

CITY           SKY/WX    TMP DP  RH WIND       PRES   REMARKS
ASPEN          CLOUDY    38  30  73 NW6       29.70S
BUENA VISTA    CLOUDY    45  14  28 S8        29.74S
COPPER MTN     NOT AVBL
BERTHOUD PASS  NOT AVBL
COTTONWOOD PAS NOT AVBL
GUNNISON       MOCLDY    40  21  46 S16       29.73F
KREMMLING      NOT AVBL
LEADVILLE      CLOUDY    33  18  53 S8        29.76S WCI  26
SALIDA         FAIR      50  17  26 S12G21    29.82S
SUNLIGHT       NOT AVBL
WILKERSON PASS NOT AVBL
$$

COZ069>075-210100-
...SAN LUIS VALLEY/SANGRE DE CRISTO MOUNTAINS...

CITY           SKY/WX    TMP DP  RH WIND       PRES   REMARKS
ALAMOSA        FAIR      46  18  32 SW18      29.78F
DEL NORTE      NOT AVBL
LA VETA PASS   NOT AVBL
SAGUACHE       NOT AVBL
$$

COZ035-036-038>040-210100-
...NORTHERN COLORADO FRONT RANGE...

CITY           SKY/WX    TMP DP  RH WIND       PRES   REMARKS
DENVER INTL AP MOCLDY    36  26  67 NE10      29.78R
DMNS CITY PARK NOT AVBL
AURORA         MOCLDY    36  26  66 E8        29.78R
FRONT RANGE AP MOCLDY    37  28  70 NE9       29.78R
ERIE MUNI ARPT NOT AVBL
BOULDER MUN AP NOT AVBL
CENTENNIAL     MOCLDY    40  27  59 N8        29.77R
BROOMFIELD     MOCLDY    37  28  70 N9        29.79R
FORT COLLINS   CLOUDY    36  29  75 E16       29.81R
LONGMONT       CLOUDY    41  29  63 NE8       29.82R
$$

COZ041-046-047-076>085-087-088-210100-
...PIKES PEAK/PALMER DIVIDE AND SOUTHERN FOOTHILLS...

CITY           SKY/WX    TMP DP  RH WIND       PRES   REMARKS
COLO. SPRINGS  MOCLDY    57  18  21 SW15G28   29.70S
A. F. ACADEMY  FAIR      45  19  34 N10       29.72R
SCHRIEVER AFB  FAIR      55  15  21 SW7       29.72S
CHEYENNE MTN   FAIR      53  15  22 SE10G23   29.69R
ELLICOTT         N/A    N/A N/A N/A SW7       29.71S
FALCON         FAIR      53  13  19 SW18G29   29.75S
FORT CARSON    FAIR      59  17  19 W21G28    29.68R
LIMON          FAIR      41  26  55 N7        29.75R
MONUMENT HILL  NOT AVBL
CANON CITY     CLEAR     61  19  20 SW8       29.67S
WALSENBURG     FAIR      57  18  21 W15G25    29.72R
TRINIDAD       FAIR      58  14  17 SW8       29.70R
$$

COZ042>045-048>051-090-091-210100-
...NORTHEAST COLORADO...

CITY           SKY/WX    TMP DP  RH WIND       PRES   REMARKS
GREELEY ARPT   CLOUDY    35  28  75 NE15      29.82R WCI  25
AKRON          FAIR      33  27  78 NE9       29.79R WCI  25
BURLINGTON     FAIR      40  27  59 NE9       29.75S
WRAY           FAIR      37  30  75 N8        29.79R
YUMA           NOT AVBL
STERLING       NOT AVBL
HOLYOKE        NOT AVBL
FORT MORGAN    FAIR      32  26  76 N10       29.82R WCI  24
$$

COZ086-089-092>099-210100-
...SOUTHEAST COLORADO...

CITY           SKY/WX    TMP DP  RH WIND       PRES   REMARKS
PUEBLO         FAIR      62  17  17 W8        29.65R
LA JUNTA       FAIR      61  18  18 W8        29.64S
LAMAR          FAIR      58  20  22 E8        29.63S
SPRINGFIELD      N/A     60  18  19 S15       29.65S
$$




USA.gov is the U.S. government's official web portal to all federal, state and local government web resources and services.